DAL297 KSAN-MMTJ

Flight info

Callsign DAL297
Flight time 0h 15m
Altitude 7000
Route ZZOOO4 CENZA DCT TIJ
Aircraft C25C/M-SDE2E3FGHRWXY/LB1

Departure

Time 2026-04-22 03:56
Airport San Diego International Airport (KSAN)

Arrival

Time 2026-04-22 04:12
Airport General Abelardo L. Rodriguez International Airport (MMTJ)
Time Latitude Longitude Altitude Speed Heading
2026-04-22 03:31 32.73346 -117.20066 20 ft 0 kts 263°
2026-04-22 03:44 32.73347 -117.20054 23 ft 2 kts 263°
2026-04-22 03:44 32.73349 -117.20036 22 ft 2 kts 263°
2026-04-22 03:44 32.73351 -117.20019 21 ft 0 kts 263°
2026-04-22 03:45 32.73352 -117.20010 21 ft 2 kts 263°
2026-04-22 03:45 32.73354 -117.19991 22 ft 2 kts 263°
2026-04-22 03:45 32.73354 -117.19986 23 ft 0 kts 263°
2026-04-22 03:47 32.73373 -117.19986 22 ft 8 kts 19°
2026-04-22 03:48 32.73454 -117.19950 21 ft 15 kts 32°
2026-04-22 03:48 32.73460 -117.19835 23 ft 14 kts 120°
2026-04-22 03:48 32.73440 -117.19732 22 ft 12 kts 108°
2026-04-22 03:48 32.73415 -117.19634 22 ft 12 kts 107°
2026-04-22 03:49 32.73398 -117.19546 21 ft 10 kts 99°
2026-04-22 03:49 32.73378 -117.19483 22 ft 8 kts 104°
2026-04-22 03:49 32.73364 -117.19421 20 ft 8 kts 97°
2026-04-22 03:49 32.73349 -117.19364 19 ft 8 kts 106°
2026-04-22 03:50 32.73332 -117.19295 17 ft 10 kts 106°
2026-04-22 03:50 32.73316 -117.19222 17 ft 7 kts 107°
2026-04-22 03:50 32.73302 -117.19168 18 ft 6 kts 107°
2026-04-22 03:50 32.73290 -117.19119 19 ft 6 kts 105°
2026-04-22 03:51 32.73277 -117.19066 19 ft 7 kts 106°
2026-04-22 03:51 32.73262 -117.19003 19 ft 9 kts 106°
2026-04-22 03:51 32.73243 -117.18926 21 ft 11 kts 109°
2026-04-22 03:51 32.73221 -117.18839 21 ft 11 kts 105°
2026-04-22 03:52 32.73201 -117.18754 24 ft 11 kts 108°
2026-04-22 03:52 32.73179 -117.18662 22 ft 12 kts 104°
2026-04-22 03:52 32.73154 -117.18551 18 ft 15 kts 101°
2026-04-22 03:52 32.73121 -117.18427 18 ft 16 kts 103°
2026-04-22 03:53 32.73093 -117.18310 18 ft 15 kts 108°
2026-04-22 03:53 32.73064 -117.18185 15 ft 16 kts 118°
2026-04-22 03:53 32.73032 -117.18056 14 ft 17 kts 106°
2026-04-22 03:53 32.72997 -117.17915 14 ft 19 kts 109°
2026-04-22 03:54 32.72960 -117.17760 12 ft 20 kts 104°
2026-04-22 03:54 32.72957 -117.17661 14 ft 0 kts 73°
2026-04-22 03:55 32.72962 -117.17649 15 ft 8 kts 50°
2026-04-22 03:55 32.73050 -117.17729 14 ft 34 kts 289°
2026-04-22 03:55 32.73218 -117.18401 19 ft 138 kts 287°
2026-04-22 03:56 32.73566 -117.19821 238 ft 209 kts 286°
2026-04-22 03:56 32.73997 -117.21541 677 ft 230 kts 286°
2026-04-22 03:56 32.74491 -117.23507 1357 ft 263 kts 286°
2026-04-22 03:56 32.75031 -117.25662 2360 ft 279 kts 286°
2026-04-22 03:57 32.75537 -117.27879 3782 ft 273 kts 277°
2026-04-22 03:57 32.75264 -117.30096 4933 ft 287 kts 246°
2026-04-22 03:57 32.73789 -117.32025 4037 ft 357 kts 218°
2026-04-22 03:57 32.71637 -117.33722 4001 ft 385 kts 202°
2026-04-22 03:58 32.69172 -117.32956 4662 ft 382 kts 136°
2026-04-22 03:58 32.67600 -117.30791 6156 ft 311 kts 124°
2026-04-22 03:58 32.66602 -117.28756 6736 ft 280 kts 117°
2026-04-22 03:58 32.65823 -117.26727 6983 ft 267 kts 113°
2026-04-22 03:59 32.65117 -117.24709 6877 ft 267 kts 112°
2026-04-22 03:59 32.64435 -117.22685 6934 ft 262 kts 111°
2026-04-22 03:59 32.63770 -117.20692 7016 ft 257 kts 112°
2026-04-22 03:59 32.63098 -117.18726 6955 ft 259 kts 112°
2026-04-22 04:00 32.62420 -117.16751 6947 ft 258 kts 112°
2026-04-22 04:00 32.61754 -117.14769 6874 ft 260 kts 111°
2026-04-22 04:00 32.61043 -117.12820 6936 ft 256 kts 117°
2026-04-22 04:00 32.60063 -117.11044 6880 ft 256 kts 128°
2026-04-22 04:01 32.58877 -117.09458 6852 ft 257 kts 133°
2026-04-22 04:01 32.57635 -117.07944 6868 ft 255 kts 135°
2026-04-22 04:01 32.56378 -117.06492 6870 ft 255 kts 136°
2026-04-22 04:01 32.55099 -117.05041 6869 ft 255 kts 136°
2026-04-22 04:02 32.53819 -117.03586 6878 ft 254 kts 133°
2026-04-22 04:02 32.53025 -117.01677 6680 ft 257 kts 123°
2026-04-22 04:02 32.51666 -117.01835 6785 ft 247 kts 259°
2026-04-22 04:02 32.52181 -117.03839 5139 ft 292 kts 307°
2026-04-22 04:03 32.53835 -117.04151 3097 ft 347 kts 56°
2026-04-22 04:03 32.54532 -117.01936 4939 ft 258 kts 102°
2026-04-22 04:03 32.53413 -117.00373 4861 ft 258 kts 147°
2026-04-22 04:03 32.51920 -116.99337 5370 ft 235 kts 131°
2026-04-22 04:04 32.51155 -116.97610 5364 ft 239 kts 109°
2026-04-22 04:04 32.51693 -116.96175 6360 ft 189 kts 39°
2026-04-22 04:04 32.52915 -116.96335 5103 ft 253 kts 290°
2026-04-22 04:04 32.53262 -116.98332 5269 ft 253 kts 268°
2026-04-22 04:05 32.52107 -117.00008 4707 ft 304 kts 201°
2026-04-22 04:05 32.50118 -116.99704 4367 ft 305 kts 137°
2026-04-22 04:05 32.48952 -116.97660 4262 ft 292 kts 123°
2026-04-22 04:05 32.48277 -116.95922 4977 ft 173 kts 95°
2026-04-22 04:06 32.48300 -116.94703 5039 ft 133 kts 78°
2026-04-22 04:06 32.48508 -116.93615 4612 ft 142 kts 78°
2026-04-22 04:06 32.48753 -116.92518 4390 ft 134 kts 73°
2026-04-22 04:06 32.48907 -116.91436 4254 ft 130 kts 86°
2026-04-22 04:07 32.49030 -116.90314 3949 ft 138 kts 80°
2026-04-22 04:07 32.49166 -116.89235 3974 ft 123 kts 82°
2026-04-22 04:07 32.49266 -116.88208 4004 ft 136 kts 83°
2026-04-22 04:07 32.49394 -116.87031 4017 ft 151 kts 82°
2026-04-22 04:08 32.49541 -116.85797 4113 ft 149 kts 81°
2026-04-22 04:08 32.49703 -116.84581 4229 ft 146 kts 81°
2026-04-22 04:08 32.49855 -116.83398 4378 ft 145 kts 81°
2026-04-22 04:08 32.50007 -116.82189 4410 ft 150 kts 81°
2026-04-22 04:09 32.50125 -116.80998 4635 ft 140 kts 83°
2026-04-22 04:09 32.50343 -116.79904 4689 ft 142 kts 53°
2026-04-22 04:09 32.51604 -116.79891 4131 ft 239 kts 313°
2026-04-22 04:09 32.52898 -116.81216 4398 ft 262 kts 336°
2026-04-22 04:10 32.54461 -116.82258 5124 ft 266 kts 309°
2026-04-22 04:10 32.54896 -116.84472 4722 ft 300 kts 265°
2026-04-22 04:10 32.54594 -116.86981 4374 ft 287 kts 265°
2026-04-22 04:10 32.54741 -116.89131 4251 ft 242 kts 278°
2026-04-22 04:11 32.54907 -116.91004 4087 ft 219 kts 272°
2026-04-22 04:11 32.54691 -116.92760 3019 ft 222 kts 247°
2026-04-22 04:11 32.54175 -116.94464 1332 ft 211 kts 245°
2026-04-22 04:11 32.53987 -116.96069 487 ft 175 kts 273°
2026-04-22 04:12 32.54091 -116.96939 476 ft 38 kts 335°
2026-04-22 04:12 32.54144 -116.97184 476 ft 28 kts 299°
2026-04-22 04:12 32.54232 -116.97343 481 ft 5 kts 308°
2026-04-22 04:12 32.54250 -116.97370 479 ft 0 kts 308°